METEOR 2-17 DEB, 35366

Orbit data source: Space-Track

METEOR 2-17 DEB, 35366 is space debris in LEO originally from a launch on Sat, 30 Jan 1988 UTC launched from the Plesetsk Missile And Space Complex (PKMTR). Debris objects in space refer to the collection of defunct objects orbiting the Earth. Examples of debris include non-operational satellites, rocket bodies, and fragments generated from explosions, collisions, or faulty payload assembly.

Loading next visibility...
Identifier
35366, 1988-005AA
Orbit
LEO
Country
Flag of CISCIS
Related business
Manufacturer
Unknown
Mission
Spacecraft
Bus & Motor
Unknown
Mass
Unknown
Launch date (UTC)
1988-01-30 (38 years ago)
Launch vehicle
Unknown
Launch site
Plesetsk Missile And Space Complex (PKMTR)
Object type
Payload
Rocket body
Debris
Shape & HBR
Unknown
Radar Cross Section
Small (<0.1 m²)

Expand to show TLE details & history
Last TLE update: 3 days ago

TLE from 3 days ago
0 METEOR 2-17 DEB
1 35366U 88005AA  25258.42552609  .00001525  00000-0  98538-3 0  9998
2 35366  82.5291 127.0674 0016951 301.3480 237.0368 14.02228114621238
Epoch: 2025-09-15T10:12Z
TLE epoch observation values (Epoch: 2025-09-15T10:12:45.454Z)
Latitude
1.65702°
Longitude
159.03143°
Altitude
895.532 km
Speed
7.401 km/s
True Right ascension
20h 27m 24s
True Declination
1° 38' 50"
Sunlit
Object was in full shadow at epoch
Visualization orbit readout
Latitude
Unknown
Longitude
Unknown
Altitude
Unknown
Speed
Unknown
Apparent Right ascension
Unknown
Apparent Declination
Unknown
Sunlit
N/A
Visualization observer readout
Local Sidereal Time
14:44:33
Azimuth
Unknown
Elevation
Unknown
Doppler factor
Unknown
Orbital elements
Apogee altitude
895.526 km
Perigee altitude
870.909 km
Semi-major axis
7,261.354 km
Eccentricity
0.0017
Inclination
82.5291°
RAAN
127.0674°
Arg. of periapsis
301.348°
True anomaly
236.87401°
Mean anomaly
237.0368°
Eccentric anomaly
236.95539°
Mean motion
3.50765 °/min
Orbital period
102.63 mins
BSTAR
0.00098538
Loading maneuver chart data...
Computing Atmospheric mass density...
Loading historical data...
Loading historical data...
Loading historical data...
Loading historical data...
Loading historical data...
Loading historical data...
Loading historical data...

Documentation

Showing up to 5 results
|